LHX1CF LRTR-EDDM

Flight info

Callsign LHX1CF
Flight time 1h 26m
Altitude 36000
Route MOPUG DCT NIPUR DCT LITKU DCT SLC DCT MAREG DCT BAGSI DCT MATIG DCT AMADI Q113 NAPSA
Aircraft A319/M-SDE2E3FGIJ1LORWXY/HB1

Departure

Time 2026-05-04 12:47
Airport Timișoara Traian Vuia International Airport (LRTR)

Arrival

Time 2026-05-04 14:14
Airport Munich Airport (EDDM)
Time Latitude Longitude Altitude Speed Heading
2026-05-04 12:24 45.81051 21.32220 336 ft 0 kts 200°
2026-05-04 12:41 45.81061 21.32225 332 ft 2 kts 200°
2026-05-04 12:41 45.81077 21.32232 333 ft 2 kts 211°
2026-05-04 12:41 45.81085 21.32250 332 ft 2 kts 284°
2026-05-04 12:41 45.81083 21.32263 331 ft 0 kts 288°
2026-05-04 12:44 45.81088 21.32244 334 ft 4 kts 289°
2026-05-04 12:44 45.81104 21.32180 333 ft 9 kts 290°
2026-05-04 12:44 45.81133 21.32073 334 ft 14 kts 302°
2026-05-04 12:45 45.81176 21.31926 331 ft 18 kts 290°
2026-05-04 12:45 45.81219 21.31755 333 ft 19 kts 290°
2026-05-04 12:45 45.81276 21.31592 336 ft 19 kts 329°
2026-05-04 12:45 45.81403 21.31630 334 ft 20 kts 20°
2026-05-04 12:46 45.81493 21.31756 332 ft 21 kts 100°
2026-05-04 12:46 45.81441 21.31961 330 ft 28 kts 109°
2026-05-04 12:46 45.81282 21.32590 334 ft 104 kts 110°
2026-05-04 12:46 45.80968 21.33845 332 ft 161 kts 109°
2026-05-04 12:47 45.80580 21.35420 911 ft 163 kts 111°
2026-05-04 12:47 45.80162 21.36934 1646 ft 166 kts 111°
2026-05-04 12:47 45.79478 21.38359 1986 ft 189 kts 145°
2026-05-04 12:47 45.78157 21.38855 2290 ft 214 kts 189°
2026-05-04 12:48 45.77200 21.38317 2545 ft 229 kts 218°
2026-05-04 12:48 45.76281 21.36374 3054 ft 251 kts 257°
2026-05-04 12:48 45.76426 21.33867 3856 ft 262 kts 294°
2026-05-04 12:48 45.77609 21.31893 4778 ft 268 kts 328°
2026-05-04 12:49 45.79306 21.30741 5736 ft 273 kts 341°
2026-05-04 12:49 45.81123 21.29848 6701 ft 280 kts 340°
2026-05-04 12:49 45.82827 21.28443 7600 ft 287 kts 323°
2026-05-04 12:49 45.84236 21.26395 8560 ft 291 kts 310°
2026-05-04 12:50 45.85521 21.24127 9543 ft 295 kts 311°
2026-05-04 12:50 45.86843 21.21851 10420 ft 302 kts 312°
2026-05-04 12:50 45.88250 21.19460 10793 ft 325 kts 312°
2026-05-04 12:50 45.89736 21.16938 11442 ft 335 kts 312°
2026-05-04 12:51 45.91247 21.14360 12264 ft 340 kts 312°
2026-05-04 12:51 45.92770 21.11748 13101 ft 343 kts 312°
2026-05-04 12:51 45.94309 21.09104 13953 ft 347 kts 312°
2026-05-04 12:51 45.95861 21.06430 14694 ft 350 kts 312°
2026-05-04 12:52 45.97425 21.03728 15443 ft 353 kts 312°
2026-05-04 12:52 45.99002 21.01002 16181 ft 356 kts 312°
2026-05-04 12:52 46.00589 20.98254 16934 ft 359 kts 312°
2026-05-04 12:52 46.02190 20.95481 17670 ft 362 kts 312°
2026-05-04 12:53 46.03805 20.92680 18396 ft 365 kts 312°
2026-05-04 12:53 46.05433 20.89855 19028 ft 368 kts 312°
2026-05-04 12:53 46.07075 20.87003 19663 ft 371 kts 312°
2026-05-04 12:53 46.08730 20.84126 20303 ft 374 kts 312°
2026-05-04 12:54 46.10398 20.81223 20935 ft 378 kts 312°
2026-05-04 12:54 46.12077 20.78292 21570 ft 381 kts 312°
2026-05-04 12:54 46.13773 20.75342 22200 ft 383 kts 313°
2026-05-04 12:54 46.15708 20.72632 22804 ft 384 kts 324°
2026-05-04 12:55 46.17941 20.70518 23390 ft 385 kts 334°
2026-05-04 12:55 46.20382 20.69057 23928 ft 386 kts 344°
2026-05-04 12:55 46.22965 20.67940 24436 ft 389 kts 345°
2026-05-04 12:55 46.25562 20.66817 24938 ft 391 kts 345°
2026-05-04 12:56 46.28173 20.65681 25438 ft 393 kts 345°
2026-05-04 12:56 46.30793 20.64532 25940 ft 395 kts 344°
2026-05-04 12:56 46.33431 20.63373 26428 ft 397 kts 344°
2026-05-04 12:56 46.36079 20.62214 26905 ft 399 kts 344°
2026-05-04 12:57 46.38745 20.61043 27374 ft 401 kts 344°
2026-05-04 12:57 46.41426 20.59867 27834 ft 404 kts 344°
2026-05-04 12:57 46.44123 20.58686 28307 ft 406 kts 344°
2026-05-04 12:57 46.46835 20.57502 28766 ft 408 kts 344°
2026-05-04 12:58 46.49562 20.56306 29220 ft 410 kts 344°
2026-05-04 12:58 46.52303 20.55098 29641 ft 413 kts 344°
2026-05-04 12:58 46.55056 20.53883 30072 ft 415 kts 344°
2026-05-04 12:58 46.57830 20.52665 30449 ft 418 kts 344°
2026-05-04 12:59 46.60619 20.51441 30806 ft 420 kts 344°
2026-05-04 12:59 46.63456 20.50193 31168 ft 421 kts 343°
2026-05-04 12:59 46.66229 20.48973 31524 ft 423 kts 343°
2026-05-04 12:59 46.69049 20.47728 31900 ft 424 kts 343°
2026-05-04 13:00 46.71897 20.46465 32407 ft 421 kts 343°
2026-05-04 13:00 46.74657 20.45236 32923 ft 419 kts 343°
2026-05-04 13:00 46.77437 20.43994 33442 ft 417 kts 343°
2026-05-04 13:00 46.80238 20.42743 33978 ft 414 kts 343°
2026-05-04 13:01 46.82951 20.41535 34425 ft 413 kts 343°
2026-05-04 13:01 46.85697 20.40314 34808 ft 412 kts 343°
2026-05-04 13:01 46.88441 20.39094 35163 ft 412 kts 343°
2026-05-04 13:01 46.91187 20.37877 35497 ft 412 kts 343°
2026-05-04 13:02 46.93929 20.36659 35834 ft 412 kts 343°
2026-05-04 13:02 46.96678 20.35433 36066 ft 413 kts 343°
2026-05-04 13:02 46.99410 20.34209 36105 ft 408 kts 343°
2026-05-04 13:03 47.04830 20.31772 36105 ft 403 kts 343°
2026-05-04 13:03 47.10193 20.29351 36103 ft 403 kts 343°
2026-05-04 13:04 47.15547 20.26931 36112 ft 403 kts 343°
2026-05-04 13:04 47.20906 20.24509 36111 ft 403 kts 343°
2026-05-04 13:05 47.26262 20.22097 36098 ft 403 kts 343°
2026-05-04 13:05 47.31615 20.19672 36098 ft 403 kts 343°
2026-05-04 13:06 47.36974 20.17241 36097 ft 403 kts 343°
2026-05-04 13:06 47.42298 20.14819 36093 ft 403 kts 343°
2026-05-04 13:07 47.47655 20.12369 36089 ft 403 kts 343°
2026-05-04 13:07 47.53009 20.09920 36091 ft 403 kts 343°
2026-05-04 13:08 47.58367 20.07457 36086 ft 403 kts 343°
2026-05-04 13:08 47.63763 20.04980 36075 ft 403 kts 343°
2026-05-04 13:09 47.69128 20.02513 36076 ft 404 kts 343°
2026-05-04 13:09 47.74259 19.99304 36078 ft 404 kts 332°
2026-05-04 13:10 47.79210 19.95326 36080 ft 405 kts 332°
2026-05-04 13:10 47.84166 19.91354 36077 ft 405 kts 332°
2026-05-04 13:11 47.89126 19.87371 36076 ft 405 kts 332°
2026-05-04 13:11 47.94117 19.83351 36064 ft 405 kts 332°
2026-05-04 13:12 47.99079 19.79344 36066 ft 405 kts 332°
2026-05-04 13:12 48.04036 19.75331 36076 ft 405 kts 332°
2026-05-04 13:13 48.08994 19.71308 36075 ft 405 kts 332°
2026-05-04 13:13 48.13949 19.67279 36073 ft 405 kts 332°
2026-05-04 13:14 48.18909 19.63246 36071 ft 406 kts 332°
2026-05-04 13:14 48.23477 19.58338 36067 ft 406 kts 314°
2026-05-04 13:15 48.26893 19.51605 36063 ft 406 kts 306°
2026-05-04 13:15 48.30117 19.44632 36063 ft 406 kts 306°
2026-05-04 13:16 48.33342 19.37654 36067 ft 407 kts 306°
2026-05-04 13:16 48.36553 19.30719 36062 ft 407 kts 305°
2026-05-04 13:17 48.39778 19.23720 36059 ft 407 kts 305°
2026-05-04 13:17 48.42890 19.16616 36070 ft 406 kts 297°
2026-05-04 13:17 48.43933 19.12668 36067 ft 407 kts 286°
2026-05-04 13:18 48.44448 19.08473 36060 ft 409 kts 275°
2026-05-04 13:18 48.43984 18.99885 36057 ft 411 kts 262°
2026-05-04 13:19 48.43031 18.91450 36051 ft 412 kts 262°
2026-05-04 13:19 48.42073 18.82953 36054 ft 412 kts 262°
2026-05-04 13:20 48.41096 18.74470 36048 ft 411 kts 262°
2026-05-04 13:20 48.40111 18.65999 36050 ft 411 kts 262°
2026-05-04 13:21 48.39110 18.57482 36052 ft 411 kts 262°
2026-05-04 13:21 48.38117 18.49083 36046 ft 410 kts 262°
2026-05-04 13:22 48.37115 18.40634 36048 ft 410 kts 262°
2026-05-04 13:22 48.36106 18.32193 36042 ft 410 kts 261°
2026-05-04 13:23 48.35097 18.23760 36046 ft 409 kts 261°
2026-05-04 13:23 48.34082 18.15339 36036 ft 409 kts 261°
2026-05-04 13:24 48.33055 18.06934 36040 ft 409 kts 261°
2026-05-04 13:24 48.32021 17.98534 36034 ft 409 kts 261°
2026-05-04 13:25 48.30466 17.85937 36021 ft 409 kts 261°
2026-05-04 13:25 48.29428 17.77547 36029 ft 408 kts 261°
2026-05-04 13:26 48.28381 17.69163 36027 ft 408 kts 261°
2026-05-04 13:26 48.27320 17.60801 36027 ft 408 kts 261°
2026-05-04 13:27 48.26426 17.53803 36027 ft 408 kts 261°
2026-05-04 13:27 48.25362 17.45444 36025 ft 408 kts 261°
2026-05-04 13:28 48.24299 17.37096 36033 ft 407 kts 261°
2026-05-04 13:28 48.23222 17.28750 36037 ft 407 kts 260°
2026-05-04 13:29 48.22143 17.20434 36033 ft 406 kts 260°
2026-05-04 13:29 48.21067 17.12191 36029 ft 405 kts 260°
2026-05-04 13:30 48.19974 17.03909 36027 ft 405 kts 260°
2026-05-04 13:30 48.18999 16.95608 36016 ft 404 kts 267°
2026-05-04 13:31 48.18690 16.87209 36002 ft 403 kts 268°
2026-05-04 13:31 48.18365 16.78820 35994 ft 404 kts 268°
2026-05-04 13:32 48.18026 16.70423 35999 ft 404 kts 268°
2026-05-04 13:32 48.17686 16.62028 36000 ft 404 kts 268°
2026-05-04 13:33 48.17340 16.53630 36000 ft 404 kts 267°
2026-05-04 13:33 48.16984 16.45241 36002 ft 403 kts 267°
2026-05-04 13:34 48.16625 16.36858 35999 ft 403 kts 267°
2026-05-04 13:34 48.16263 16.28473 35991 ft 403 kts 267°
2026-05-04 13:35 48.15710 16.15901 35960 ft 403 kts 267°
2026-05-04 13:36 48.15330 16.07520 35961 ft 403 kts 267°
2026-05-04 13:36 48.14946 15.99147 35961 ft 403 kts 267°
2026-05-04 13:37 48.14557 15.90780 35968 ft 403 kts 267°
2026-05-04 13:37 48.14157 15.82424 35973 ft 402 kts 266°
2026-05-04 13:38 48.13752 15.74083 35976 ft 401 kts 266°
2026-05-04 13:38 48.13342 15.65752 35974 ft 401 kts 266°
2026-05-04 13:39 48.12930 15.57427 35971 ft 401 kts 266°
2026-05-04 13:39 48.12516 15.49109 35970 ft 401 kts 266°
2026-05-04 13:40 48.12095 15.40796 35972 ft 400 kts 266°
2026-05-04 13:40 48.11663 15.32500 35968 ft 400 kts 266°
2026-05-04 13:41 48.11219 15.24205 35969 ft 400 kts 266°
2026-05-04 13:41 48.10782 15.15914 35964 ft 400 kts 266°
2026-05-04 13:42 48.10114 15.03482 35962 ft 400 kts 265°
2026-05-04 13:42 48.09651 14.95201 35949 ft 399 kts 265°
2026-05-04 13:43 48.09185 14.86920 35947 ft 400 kts 265°
2026-05-04 13:43 48.08714 14.78638 35945 ft 400 kts 265°
2026-05-04 13:44 48.08243 14.70348 35947 ft 400 kts 265°
2026-05-04 13:44 48.07766 14.62058 35946 ft 400 kts 265°
2026-05-04 13:45 48.07280 14.53774 35948 ft 400 kts 265°
2026-05-04 13:45 48.06786 14.45498 35949 ft 400 kts 265°
2026-05-04 13:46 48.06282 14.37228 35949 ft 399 kts 264°
2026-05-04 13:46 48.05797 14.28956 35822 ft 401 kts 268°
2026-05-04 13:47 48.05796 14.24797 35567 ft 400 kts 270°
2026-05-04 13:47 48.05822 14.20649 35242 ft 397 kts 270°
2026-05-04 13:47 48.05842 14.16535 34753 ft 395 kts 270°
2026-05-04 13:47 48.05853 14.12446 34250 ft 392 kts 269°
2026-05-04 13:48 48.05863 14.08385 33730 ft 390 kts 269°
2026-05-04 13:48 48.05870 14.04347 33234 ft 387 kts 269°
2026-05-04 13:48 48.05875 14.00348 32756 ft 383 kts 269°
2026-05-04 13:48 48.05879 13.96385 32283 ft 380 kts 270°
2026-05-04 13:49 48.05882 13.92455 31809 ft 377 kts 270°
2026-05-04 13:49 48.05884 13.88557 31354 ft 374 kts 270°
2026-05-04 13:49 48.05888 13.84676 30896 ft 372 kts 270°
2026-05-04 13:49 48.05893 13.80820 30459 ft 370 kts 270°
2026-05-04 13:50 48.05896 13.76979 30016 ft 369 kts 270°
2026-05-04 13:50 48.05896 13.73150 29551 ft 367 kts 270°
2026-05-04 13:50 48.05891 13.69349 29124 ft 364 kts 269°
2026-05-04 13:50 48.05884 13.65581 28709 ft 361 kts 269°
2026-05-04 13:51 48.05875 13.61846 28304 ft 357 kts 269°
2026-05-04 13:51 48.05866 13.58148 27909 ft 354 kts 269°
2026-05-04 13:51 48.05859 13.54490 27502 ft 351 kts 269°
2026-05-04 13:51 48.05937 13.50861 27098 ft 348 kts 272°
2026-05-04 13:52 48.06339 13.43715 26274 ft 342 kts 274°
2026-05-04 13:52 48.06570 13.40186 25865 ft 340 kts 274°
2026-05-04 13:52 48.06791 13.36679 25428 ft 338 kts 274°
2026-05-04 13:53 48.06997 13.33186 25011 ft 336 kts 273°
2026-05-04 13:53 48.07190 13.29712 24571 ft 335 kts 273°
2026-05-04 13:53 48.07374 13.26241 24124 ft 335 kts 272°
2026-05-04 13:54 48.07728 13.19316 23192 ft 334 kts 272°
2026-05-04 13:54 48.07903 13.15867 22738 ft 331 kts 272°
2026-05-04 13:54 48.08253 13.09044 21886 ft 327 kts 272°
2026-05-04 13:55 48.08426 13.05665 21469 ft 325 kts 272°
2026-05-04 13:55 48.08761 12.98957 20648 ft 322 kts 272°
2026-05-04 13:55 48.08926 12.95626 20236 ft 320 kts 272°
2026-05-04 13:56 48.09090 12.92306 19834 ft 320 kts 272°
2026-05-04 13:56 48.09297 12.89000 19426 ft 319 kts 274°
2026-05-04 13:56 48.09912 12.82423 18625 ft 319 kts 276°
2026-05-04 13:57 48.10247 12.79144 18219 ft 319 kts 276°
2026-05-04 13:57 48.10578 12.75865 17776 ft 318 kts 275°
2026-05-04 13:58 48.11523 12.66126 16601 ft 313 kts 275°
2026-05-04 13:58 48.12540 12.59910 16247 ft 301 kts 286°
2026-05-04 13:58 48.13235 12.56885 15925 ft 311 kts 285°
2026-05-04 13:59 48.13929 12.53816 15601 ft 311 kts 285°
2026-05-04 13:59 48.14621 12.50748 15280 ft 311 kts 285°
2026-05-04 13:59 48.16011 12.44638 14646 ft 309 kts 285°
2026-05-04 14:00 48.16704 12.41597 14334 ft 308 kts 285°
2026-05-04 14:00 48.18083 12.35547 13720 ft 306 kts 285°
2026-05-04 14:00 48.18766 12.32536 13377 ft 304 kts 285°
2026-05-04 14:01 48.19456 12.29500 13033 ft 303 kts 285°
2026-05-04 14:01 48.20124 12.26563 12698 ft 301 kts 285°
2026-05-04 14:01 48.21472 12.20611 12032 ft 298 kts 285°
2026-05-04 14:02 48.22121 12.17718 11703 ft 296 kts 285°
2026-05-04 14:02 48.22775 12.14798 11382 ft 294 kts 285°
2026-05-04 14:02 48.23426 12.11900 11053 ft 292 kts 285°
2026-05-04 14:02 48.24074 12.09024 10733 ft 290 kts 285°
2026-05-04 14:03 48.24715 12.06159 10430 ft 289 kts 285°
2026-05-04 14:03 48.25355 12.03299 10116 ft 289 kts 285°
2026-05-04 14:03 48.25993 12.00445 9801 ft 288 kts 285°
2026-05-04 14:03 48.26566 11.97586 9491 ft 284 kts 278°
2026-05-04 14:04 48.26640 11.91757 8923 ft 279 kts 261°
2026-05-04 14:04 48.26411 11.88869 8639 ft 279 kts 261°
2026-05-04 14:04 48.26189 11.85982 8362 ft 278 kts 262°
2026-05-04 14:05 48.25753 11.80220 7818 ft 277 kts 262°
2026-05-04 14:05 48.25536 11.77350 7543 ft 277 kts 262°
2026-05-04 14:05 48.25318 11.74485 7274 ft 276 kts 262°
2026-05-04 14:06 48.25098 11.71626 7006 ft 276 kts 262°
2026-05-04 14:06 48.24876 11.68774 6741 ft 275 kts 262°
2026-05-04 14:06 48.24652 11.65931 6479 ft 275 kts 262°
2026-05-04 14:06 48.24428 11.63086 6213 ft 275 kts 263°
2026-05-04 14:07 48.24205 11.60249 5937 ft 273 kts 262°
2026-05-04 14:07 48.23983 11.57417 5660 ft 274 kts 263°
2026-05-04 14:07 48.23751 11.54588 5419 ft 273 kts 263°
2026-05-04 14:07 48.23512 11.51753 5224 ft 273 kts 263°
2026-05-04 14:08 48.23521 11.49898 5116 ft 265 kts 281°
2026-05-04 14:08 48.24255 11.47456 5029 ft 258 kts 310°
2026-05-04 14:08 48.25681 11.45837 5036 ft 260 kts 339°
2026-05-04 14:08 48.27470 11.45429 5038 ft 259 kts
2026-05-04 14:09 48.30794 11.47422 4951 ft 256 kts 33°
2026-05-04 14:09 48.31895 11.49308 4765 ft 238 kts 67°
2026-05-04 14:10 48.32405 11.53960 4220 ft 218 kts 83°
2026-05-04 14:10 48.32579 11.56191 3935 ft 212 kts 83°
2026-05-04 14:10 48.32749 11.58344 3711 ft 203 kts 83°
2026-05-04 14:10 48.32913 11.60414 3409 ft 195 kts 83°
2026-05-04 14:11 48.33068 11.62378 3159 ft 184 kts 83°
2026-05-04 14:11 48.33345 11.65888 2719 ft 150 kts 83°
2026-05-04 14:11 48.33464 11.67396 2526 ft 142 kts 83°
2026-05-04 14:12 48.33578 11.68847 2342 ft 138 kts 82°
2026-05-04 14:12 48.33689 11.70263 2154 ft 136 kts 83°
2026-05-04 14:12 48.33908 11.73053 1765 ft 135 kts 81°
2026-05-04 14:13 48.34015 11.74445 1595 ft 133 kts 83°
2026-05-04 14:13 48.34123 11.75815 1485 ft 128 kts 84°
2026-05-04 14:13 48.34213 11.76973 1485 ft 92 kts 83°
2026-05-04 14:13 48.34279 11.77827 1477 ft 74 kts 83°
2026-05-04 14:14 48.34379 11.78369 1485 ft 48 kts 55°
2026-05-04 14:14 48.34610 11.78823 1478 ft 24 kts 54°
2026-05-04 14:14 48.34644 11.79060 1485 ft 24 kts 84°
2026-05-04 14:15 48.34682 11.79559 1476 ft 24 kts 83°
2026-05-04 14:15 48.34863 11.79693 1483 ft 18 kts 353°
2026-05-04 14:16 48.35077 11.79769 1485 ft 19 kts 83°
2026-05-04 14:16 48.35091 11.79968 1486 ft 19 kts 83°
2026-05-04 14:17 48.35189 11.80222 1486 ft 11 kts 353°
2026-05-04 14:17 48.35266 11.80208 1473 ft 12 kts 353°
2026-05-04 14:17 48.35289 11.80289 1480 ft 0 kts 83°